[Iaude] MPEC K119: 2024 KU [a=2.44,e=0.58,i=8.8,H=28.2]

mpec at cfa.harvard.edu mpec at cfa.harvard.edu
Wed May 29 03:57:36 EDT 2024


M.P.E.C. 2024-K119                                 Issued 2024 May 29, 07:56 UT

     The Minor Planet Electronic Circulars contain information on unusual
         minor planets, routine data on comets and natural satellites,
         and occasional editorial announcements.  They are published
    on behalf of Division F of the International Astronomical Union by the
          Minor Planet Center, Smithsonian Astrophysical Observatory,
                          Cambridge, MA 02138, U.S.A.
			  
             Prepared using the Tamkin Foundation Computer Network

                              MPC at CFA.HARVARD.EDU
            URL https://www.minorplanetcenter.net/    ISSN 1523-6714

                                    2024 KU                                     


Observations:
     K24K00U*1C2024 05 28.24087413 34 30.644+47 46 33.89         20.56GVEK119G96
     K24K00U 1C2024 05 28.24610513 34 52.151+47 45 45.11         20.63GVEK119G96
     K24K00U 1C2024 05 28.25134413 35 13.668+47 44 54.82         20.04GVEK119G96
     K24K00U 1C2024 05 28.25657313 35 35.416+47 44 05.03         20.36GVEK119G96
     K24K00U  C2024 05 28.26950913 36 26.078+47 41 13.67         20.2 GVEK119H01
     K24K00U  C2024 05 28.27363613 36 43.626+47 40 29.94         20.0 GVEK119H01
     K24K00U  C2024 05 28.28544613 37 34.346+47 38 21.15         21.1 GVEK119H01
     K24K00U KC2024 05 28.28772013 37 47.273+47 38 38.36         20.63GVEK119I52
     K24K00U KC2024 05 28.28898013 37 52.734+47 38 24.58         20.95GVEK119I52
     K24K00U KC2024 05 28.29024313 37 58.199+47 38 10.46         20.31GVEK119I52
     K24K00U  C2024 05 28.29061313 37 56.782+47 37 22.79         20.5 GVEK119H01
     K24K00U KC2024 05 28.29150613 38 03.631+47 37 56.60         20.64GVEK119I52
     K24K00U KB2024 05 29.00748814 59 17.70 +42 48 54.7          19.3 GXEK119I93
     K24K00U KB2024 05 29.00953114 59 35.93 +42 47 09.5          19.3 GXEK119I93
     K24K00U KB2024 05 29.01160014 59 54.30 +42 45 23.9          19.4 GXEK119I93
     K24K00U KB2024 05 29.01344515 00 10.82 +42 43 48.1          18.6 GXEK119I93
     K24K00U KC2024 05 29.22364015 37 32.410+39 04 41.70         19.19GVEK119V06
     K24K00U KC2024 05 29.22420615 37 38.400+39 03 57.00         19.11GVEK119V06
     K24K00U KC2024 05 29.22477615 37 44.440+39 03 11.80         19.13GVEK119V06
     K24K00U KC2024 05 29.22534515 37 50.450+39 02 26.80         19.22GVEK119V06
     K24K00U KC2024 05 29.23202115 39 01.260+38 53 32.30         18.99GVEK119V06
     K24K00U KC2024 05 29.23235915 39 04.860+38 53 04.70         18.87GVEK119V06
     K24K00U KC2024 05 29.23269615 39 08.470+38 52 37.60         19.06GVEK119V06
     K24K00U KC2024 05 29.23303315 39 12.030+38 52 10.40         18.95GVEK119V06
     K24K00U KC2024 05 29.23337315 39 15.640+38 51 42.90         19.17GVEK119V06
     K24K00U  C2024 05 29.29708915 50 40.557+37 17 35.92         19.0 GVEK119H01
     K24K00U  C2024 05 29.30107815 51 24.907+37 11 15.01         18.8 GVEK119H01
     K24K00U  C2024 05 29.31063515 53 11.773+36 55 46.46         18.9 GVEK119H01
     K24K00U  C2024 05 29.31752315 54 29.179+36 44 24.86         18.5 GVEK119H01

Observer details:
G96 Mt. Lemmon Survey.  Observer K. W. Wierzchos.  Measurers T. Beuden, V. F.
    Carvajal, D. Fay, J. B. Fazekas, D. C. Fuls, A. R. Gibbs, A. D. Grauer, H.
    Groeller, J. K. Hogan, R. A. Kowalski, S. M. Larson, G. J. Leonard, D.
    Rankin, R. L. Seaman, F. C. Shelly, K. W. Wierzchos.  1.5-m reflector +
    10K CCD.
H01 Magdalena Ridge Observatory, Socorro.  Observers W. H. Ryan, E. V. Ryan.
    Measurer W. H. Ryan.  2.4-m f/8.9 Ritchey-Chretien + CCD.
I52 Steward Observatory, Mt. Lemmon Station.  Observer R. A. Kowalski.
    Measurers T. Beuden, V. F. Carvajal, D. Fay, J. B. Fazekas, D. C. Fuls, A.
    R. Gibbs, A. D. Grauer, H. Groeller, J. K. Hogan, R. A. Kowalski, S. M.
    Larson, G. J. Leonard, D. Rankin, R. L. Seaman, F. C. Shelly, K. W.
    Wierzchos.  1.0-m prime focus + CCD.
I93 St Pardon de Conques.  Observer F. Losse.  0.40-m f/3.7 reflector + CMO.
V06 Catalina Sky Survey-Kuiper.  Observer V. F. Carvajal.  Measurers T.
    Beuden, V. F. Carvajal, D. Fay, J. B. Fazekas, D. C. Fuls, A. R. Gibbs, A.
    D. Grauer, H. Groeller, J. K. Hogan, R. A. Kowalski, S. M. Larson, G. J.
    Leonard, D. Rankin, R. L. Seaman, F. C. Shelly, K. W. Wierzchos.  1.55-m
    reflector + 1K CCD.

Orbital elements:
2024 KU                                                  Earth MOID = 0.0034 AU
Epoch 2024 Mar. 31.0 TT = JDT 2460400.5                 MPC                     
M 345.98036              (2000.0)            P               Q                  
n   0.25897131     Peri.  172.13299     -0.47231871     +0.86958181             
a   2.4376327      Node    69.58300     -0.81683093     -0.37042195             
e   0.5840379      Incl.    8.84006     -0.33121333     -0.32651960             
P   3.81           H   28.27          G   0.15           U   7                  
Residuals in seconds of arc
240528 G96 (1.0-  0.3+)   240528 H01  0.0   0.2-    240529 V06  0.1-  0.0
240528 G96  0.0   0.2+    240528 I52  0.4-  0.2+    240529 V06  0.0   0.3-
240528 G96  0.4-  0.2-    240529 I93  0.4-  0.2+    240529 V06  0.3+  0.1-
240528 G96  0.5+  0.9+    240529 I93  0.4+  0.5-    240529 V06  0.0   0.1-
240528 H01  0.0   0.1-    240529 I93  0.2-  0.3+    240529 V06  0.1-  0.0
240528 H01  0.1+  0.1-    240529 I93  0.3+  0.1-    240529 H01  0.0   0.0
240528 H01  0.1+  0.0     240529 V06  0.1-  0.0     240529 H01  0.2-  0.3+
240528 I52  0.0   0.3-    240529 V06  0.2-  0.1+    240529 H01  0.3+  0.2-
240528 I52  0.1+  0.1-    240529 V06  0.0   0.0     240529 H01  0.1-  0.1+
240528 I52  0.1+  0.1-    240529 V06  0.2-  0.1+

Ephemeris:
2024 KU                  a,e,i = 2.44, 0.58, 9                   q = 1.0140
Date    TT    R. A. (2000) Decl.     Delta      r    Elong.  Phase     V
2024 04 29    11 24 35.1 +46 08 43   0.1605  1.0650   107.0    64.7    26.7
...
2024 05 14    11 27 36.9 +47 03 14   0.08522 1.0225    95.6    79.6    25.8
...
2024 05 22    11 43 00.6 +47 38 39   0.04289 1.0143    91.6    86.0    24.5
...
2024 05 28    13 18 33.4 +48 08 17   0.01105 1.0152    99.4    79.9    21.3
2024 05 29    14 58 38.1 +42 57 17   0.0063061.0160   112.5    67.2    19.7
2024 05 30    18 22 20.2 +04 55 58   0.0040261.0168   141.3    38.5    17.9
...
2024 06 05    22 39 12.4 -44 32 25   0.03324 1.0253   107.9    70.3    23.4
...
2024 06 13    22 57 37.2 -46 03 11   0.07593 1.0454   111.2    64.9    25.1
...
2024 06 28    22 55 18.6 -46 51 36   0.1545  1.1071   122.4    50.8    26.3

A. U. Tomatic                (C) Copyright 2024 MPC           M.P.E.C. 2024-K119





More information about the Iaude mailing list